Theta_e
341 339 339 334 337 342 346 346 343 345 344 341 342 341 340 338 340 343 339 339 339 340 340 341 337 336 336 335 335 334 332 330 328 326 324 321 320 319 318 318 318 318 317 319 321 326 335 332 333
340 337 334 336 339 346 344 341 346 344 343 342 342 341 341 341 337 337 336 338 340 339 340 341 339 335 333 332 331 330 329 328 328 327 326 322 319 318 319 319 319 320 320 321 332 329 333 333 335
339 338 336 334 339 346 346 343 343 342 342 342 342 342 342 341 335 334 333 336 339 339 339 338 338 337 334 331 331 331 330 331 331 328 325 322 320 319 319 320 321 321 321 321 322 332 334 332 335
337 336 337 336 340 341 343 343 340 341 341 341 340 341 340 341 336 335 335 340 340 339 337 334 334 333 333 332 331 330 331 330 331 330 327 324 321 320 319 320 321 322 322 322 323 325 332 333 330
336 336 335 338 339 339 339 338 341 341 340 340 340 340 341 339 338 339 339 338 336 334 332 330 329 328 328 327 326 325 324 324 323 324 324 326 325 323 320 319 320 321 322 323 322 324 329 332 332
336 333 335 342 339 338 336 341 339 340 340 339 339 339 340 339 338 338 337 335 333 333 332 329 325 323 322 322 321 321 320 320 320 322 323 322 324 326 327 327 325 322 319 321 322 323 323 325 331
333 329 338 340 338 338 339 341 339 340 339 338 339 341 339 338 338 336 335 335 334 330 322 321 321 321 321 321 321 320 319 320 319 318 318 318 320 324 326 329 330 330 331 326 320 320 322 322 323
334 332 340 338 341 342 341 341 340 340 340 339 339 339 339 338 337 336 333 331 325 321 321 320 320 320 320 320 321 320 318 318 319 319 318 318 317 317 321 323 325 327 327 327 326 327 323 321 321
335 334 337 336 339 339 341 340 338 339 339 338 339 338 338 338 336 330 325 323 323 323 322 322 321 320 320 320 319 320 319 319 318 318 318 318 318 317 316 316 321 325 326 325 323 324 324 325 322
333 332 337 334 335 340 340 339 338 339 339 337 338 338 337 334 330 327 325 324 323 322 321 320 320 320 320 319 318 317 317 319 319 319 318 318 317 317 317 316 316 319 325 325 325 324 324 324 325
337 337 335 336 339 339 338 337 336 337 337 338 336 337 335 329 327 326 325 323 323 322 323 322 322 322 321 319 317 315 314 314 317 318 317 317 316 315 315 315 315 314 315 320 324 325 324 323 322
338 338 337 337 340 339 338 336 335 334 335 337 336 336 332 328 326 326 326 324 323 323 323 323 322 322 321 320 319 317 315 313 315 316 315 315 314 314 314 313 313 313 313 314 317 321 324 323 321
335 339 340 341 340 337 336 335 335 332 335 336 336 333 329 325 324 324 323 323 324 323 322 323 322 321 319 314 311 312 312 313 313 314 314 313 313 313 312 312 311 309 309 310 314 316 320 321 319
334 339 339 338 336 334 334 334 334 333 334 331 333 328 326 326 326 324 325 325 324 323 323 323 320 315 312 309 312 312 314 314 313 314 313 313 312 311 310 309 308 307 306 307 308 312 314 320 319
337 334 332 334 337 335 335 336 335 333 331 329 326 325 325 325 325 326 325 325 324 324 323 321 315 314 312 310 313 313 314 313 313 313 313 311 310 309 310 309 310 310 307 307 309 310 313 315 318
334 332 334 328 337 335 336 339 334 332 331 329 328 325 325 326 326 326 326 326 325 324 322 318 314 315 314 311 310 311 312 313 313 313 312 310 309 310 309 310 311 311 311 310 309 311 312 313 314
330 333 333 335 332 335 335 337 334 332 331 329 324 324 324 325 326 326 326 326 325 322 317 315 315 315 314 312 310 309 310 311 312 311 310 309 310 309 310 310 310 311 310 310 309 309 310 311 312
334 334 333 335 333 335 336 337 335 333 332 331 326 324 326 326 326 328 326 326 325 321 318 315 315 315 314 312 311 310 310 310 310 311 309 309 310 310 310 310 310 311 311 310 309 309 309 309 311
332 331 334 331 331 332 335 335 335 334 332 333 329 326 326 327 327 328 327 326 324 320 318 316 316 315 314 312 312 312 312 311 309 309 310 310 310 311 310 310 310 310 311 312 311 310 310 310 310
334 333 333 333 332 332 333 335 332 330 330 331 330 326 326 326 328 328 327 326 323 320 320 317 316 315 313 311 313 313 312 312 310 309 310 310 310 311 310 310 310 310 311 312 311 311 311 310 310
331 332 333 334 332 330 330 332 333 330 327 327 327 326 324 328 328 328 326 324 322 321 319 317 316 314 312 311 313 311 312 311 311 311 311 311 310 311 310 310 310 311 312 313 313 311 310 311 312
331 331 333 332 332 335 330 331 333 332 328 327 327 327 327 328 327 327 325 323 322 321 318 317 315 314 311 312 313 311 312 311 311 311 311 310 310 310 310 310 310 312 312 312 312 311 310 311 311
329 329 333 332 331 329 328 328 330 331 330 327 327 325 324 325 326 326 325 323 322 320 318 316 315 313 311 312 312 312 313 313 312 310 309 310 310 310 310 310 311 312 313 312 312 313 312 312 312
328 329 325 324 324 327 328 327 326 329 330 328 328 326 324 325 327 327 326 323 322 319 317 316 315 312 312 311 312 312 313 313 314 311 310 311 311 311 311 309 311 312 313 313 313 314 313 313 312
321 320 322 323 329 332 328 323 324 325 327 327 327 328 327 326 327 326 325 323 321 318 317 316 314 312 311 312 312 313 312 313 314 312 311 311 311 312 310 310 311 312 312 313 313 314 314 314 314
326 320 321 327 331 330 327 330 325 324 326 326 328 328 326 325 326 325 324 321 319 317 316 315 314 313 312 312 313 313 313 312 313 313 312 311 311 311 308 311 311 312 312 312 313 314 314 314 314
327 326 322 326 324 326 328 328 325 325 326 326 325 326 326 326 324 324 322 321 319 318 316 315 313 313 312 312 313 314 313 312 313 313 312 312 312 309 310 311 312 312 312 312 313 313 314 313 314
324 324 323 321 327 331 329 327 325 321 324 325 325 325 324 323 324 323 322 319 319 317 316 313 313 312 312 313 313 313 312 312 312 312 312 310 308 309 310 311 311 312 312 312 311 312 312 313 312
322 323 324 321 323 327 331 329 320 319 322 324 325 325 325 324 323 323 321 319 319 317 315 314 313 312 312 313 313 313 312 311 312 312 312 311 311 310 310 310 311 311 311 311 311 311 311 312 312
320 322 322 323 327 322 321 323 317 316 317 321 321 319 320 323 323 323 321 319 317 316 314 313 313 312 312 313 313 313 312 311 312 312 312 311 311 311 309 310 310 310 310 311 311 311 311 311 311
Wind_Speed
8 7 5 5 5 4 4 4 3 4 4 3 9 10 9 8 2 2 16 13 9 6 7 4 3 4 3 3 3 3 2 2 3 3 4 4 4 4 5 5 5 5 5 6 6 7 7 9 8
8 6 7 6 5 4 4 3 8 7 18 19 17 13 12 6 6 12 16 14 8 7 5 5 5 4 4 5 4 4 4 4 4 4 4 3 3 3 4 4 4 3 3 5 6 9 9 9 10
8 6 5 4 3 2 3 3 13 21 8 5 6 10 5 4 7 10 19 11 8 5 6 6 6 7 6 5 5 5 5 5 5 4 3 3 2 2 2 3 3 2 2 3 4 6 9 9 10
4 5 7 5 4 2 3 6 6 4 13 12 13 7 7 4 12 10 11 9 7 6 6 7 7 6 7 7 7 7 7 6 6 6 5 3 2 1 1 2 2 2 2 2 3 5 8 9 8
4 5 5 3 5 2 2 10 8 6 4 7 5 6 6 8 12 14 11 9 4 5 7 8 8 8 8 9 9 9 9 9 8 8 8 7 5 4 3 3 4 4 4 4 3 4 7 10 10
4 4 4 2 6 2 4 5 13 18 17 16 14 12 7 14 15 15 13 11 9 10 9 8 10 11 12 12 12 12 12 14 13 11 9 7 7 4 4 5 6 6 7 7 7 7 7 8 10
6 4 3 2 1 0 2 11 10 13 13 11 7 5 8 12 15 19 18 14 10 9 11 13 14 13 11 9 9 10 10 10 10 12 12 11 10 9 8 7 5 6 6 7 9 11 11 11 11
7 6 4 1 4 1 9 4 8 9 6 9 6 4 6 15 17 18 15 13 13 13 11 10 9 6 5 5 5 6 6 7 6 8 11 15 15 14 13 11 11 10 9 10 11 11 13 14 15
7 5 2 3 5 3 13 5 3 3 11 7 5 19 20 23 20 17 16 14 11 9 7 6 5 8 8 8 10 10 10 11 11 12 15 17 20 19 16 15 14 14 13 11 12 14 15 16 17
6 4 3 7 6 6 10 8 9 6 10 12 25 21 24 24 19 16 15 14 11 10 9 8 7 9 10 12 14 15 17 16 14 14 16 16 17 19 20 19 17 16 16 15 16 14 13 14 16
4 4 6 15 13 16 8 12 6 18 3 13 25 31 29 24 20 19 15 11 10 8 6 5 8 11 14 15 17 18 17 18 18 18 17 17 17 17 18 20 22 20 18 15 12 16 16 9 9
6 5 13 7 15 11 5 15 7 5 9 23 25 27 28 25 21 18 14 10 7 4 6 7 11 15 18 21 23 25 24 20 18 19 19 15 16 18 19 21 20 22 21 20 17 18 17 14 12
5 4 3 13 17 17 12 8 8 11 17 28 26 25 29 27 22 16 13 9 2 5 7 8 13 18 22 27 26 21 14 10 10 11 12 15 19 23 26 26 26 25 24 23 22 21 23 19 12
7 10 6 14 16 14 15 8 2 9 21 21 23 23 26 23 19 17 12 6 2 5 5 8 14 20 26 21 17 15 12 10 11 11 15 18 23 27 27 21 17 15 15 17 20 23 23 20 18
22 6 4 3 7 4 17 3 5 13 13 15 18 19 17 19 20 14 10 7 7 2 4 9 16 25 27 18 14 14 13 10 10 13 16 21 23 20 18 18 17 16 13 15 16 16 19 24 21
4 5 5 3 8 8 5 1 9 15 15 13 13 15 18 19 15 15 15 13 8 1 5 15 17 25 24 22 16 13 13 14 15 17 17 20 15 17 17 16 17 18 16 14 14 14 15 15 20
5 3 4 3 7 4 2 4 13 16 12 12 14 13 14 18 15 15 17 10 6 2 9 15 18 21 21 22 14 13 10 13 14 12 16 16 13 15 16 17 16 19 18 16 14 14 15 14 16
6 4 4 5 1 6 8 6 12 15 13 10 10 19 25 22 19 19 17 10 5 3 7 15 16 17 20 22 12 11 9 10 12 11 13 12 12 13 15 14 14 18 19 15 14 15 16 20 17
3 5 9 2 4 6 7 9 2 4 8 12 19 19 22 23 19 21 15 11 7 6 7 13 16 20 19 22 12 12 14 14 11 8 11 11 13 14 15 15 17 19 19 19 16 15 13 13 15
2 6 4 5 6 7 7 10 9 10 13 23 30 27 20 22 16 21 16 12 8 8 10 15 18 17 17 18 13 15 16 14 12 10 11 11 11 13 15 18 18 19 20 20 16 14 13 11 9
4 4 6 7 9 7 7 6 4 2 4 0 11 19 9 16 17 19 16 14 11 9 13 17 15 15 18 15 12 14 12 12 11 10 10 10 12 13 15 17 19 19 19 21 16 12 11 10 6
3 6 13 19 4 3 1 0 2 0 6 5 6 10 13 14 16 19 15 16 14 11 14 15 14 14 16 13 11 13 14 16 13 13 13 12 13 14 15 16 18 18 16 19 16 12 9 11 11
2 6 19 7 7 6 6 4 2 1 5 6 11 14 10 15 20 19 16 16 15 14 13 14 12 14 13 11 10 11 13 16 16 14 13 10 12 14 13 14 14 13 15 16 14 14 11 11 12
10 19 11 5 4 4 3 3 3 1 3 4 14 22 20 12 19 16 15 14 15 15 14 13 12 13 10 8 10 13 16 18 18 15 11 11 12 13 11 11 10 10 13 14 15 13 12 11 8
6 4 1 2 5 0 5 4 5 4 3 5 10 15 13 9 13 15 16 19 20 15 13 12 13 12 9 8 10 13 16 17 16 13 13 12 13 13 13 8 8 9 10 13 14 14 12 11 8
4 4 4 4 3 2 5 2 4 4 3 6 3 5 12 16 14 14 18 17 17 14 12 12 14 14 11 8 9 13 17 16 13 10 13 12 13 14 7 8 7 8 9 11 11 14 11 12 10
4 5 3 7 3 3 2 1 6 3 2 2 3 3 9 14 16 20 17 17 18 14 12 12 12 14 10 8 11 12 13 14 9 9 12 11 14 10 5 7 6 8 10 9 9 12 13 8 14
5 2 1 3 4 3 1 0 3 6 4 3 5 9 12 16 17 18 18 19 13 15 11 12 12 11 8 8 10 12 12 7 8 10 9 11 8 5 5 4 5 7 10 8 9 9 11 13 12
5 4 5 5 3 4 4 2 5 3 3 3 8 9 12 14 17 20 19 17 15 14 15 13 11 12 10 9 9 10 9 5 7 8 10 12 13 11 7 5 5 6 10 9 11 6 8 9 11
4 3 3 4 0 2 3 2 5 5 5 5 6 7 11 15 16 15 17 17 18 18 17 14 11 13 9 9 10 7 5 5 6 8 7 7 12 11 13 4 5 5 5 7 9 8 6 4 5
Wind_Direction
130 105 116 57 62 65 338 24 97 118 69 72 106 106 111 43 44 139 148 150 148 128 108 97 100 95 98 81 63 56 47 39 49 60 64 65 65 70 86 101 113 127 136 153 160 143 147 150 151
125 77 50 76 67 57 331 350 68 100 126 99 81 76 62 63 112 142 147 145 130 131 125 97 82 73 51 47 51 57 63 63 57 65 74 83 90 83 79 79 87 103 133 156 154 161 166 168 171
152 47 55 82 81 52 320 84 118 129 123 82 94 52 44 32 106 109 137 134 120 127 110 84 68 53 43 45 45 45 48 56 56 47 48 61 92 114 109 100 97 102 132 175 185 167 175 180 183
124 58 65 79 75 38 313 17 354 68 79 71 100 64 66 78 139 136 141 130 134 117 90 64 59 52 47 44 38 33 25 22 21 11 9 6 348 288 212 191 186 174 170 171 187 190 191 192 195
148 75 60 47 94 243 278 314 290 28 70 83 74 92 75 91 136 142 136 114 111 91 74 67 57 51 47 44 39 33 24 16 9 4 357 352 342 334 316 279 259 244 237 226 214 204 197 201 209
64 65 57 86 149 216 287 71 84 87 83 92 85 98 75 118 131 125 129 132 119 101 92 80 70 59 54 50 47 44 36 27 19 9 2 345 337 324 307 321 314 299 284 271 256 245 228 212 215
93 77 116 72 136 84 204 133 116 93 82 60 114 83 120 129 132 133 126 115 110 99 95 86 77 71 64 58 48 35 25 21 17 359 352 349 341 324 320 297 292 278 295 273 256 252 254 246 229
110 91 108 164 170 285 139 108 103 107 85 118 97 134 114 141 140 128 114 109 114 116 106 94 87 77 52 31 2 357 348 342 335 337 332 326 327 330 321 314 292 271 259 261 260 256 250 254 255
122 70 77 175 152 201 148 127 80 111 129 113 118 140 141 142 138 128 120 120 121 103 76 64 50 29 20 359 354 339 320 324 316 312 314 316 319 318 317 317 308 288 282 274 266 259 260 258 256
98 94 162 174 200 166 150 119 132 126 127 118 115 131 145 138 140 136 135 134 119 104 81 65 23 1 344 334 327 318 314 312 310 311 314 316 314 311 310 311 311 300 296 283 276 270 261 260 264
88 127 166 197 168 138 100 108 119 128 113 153 140 151 154 151 153 146 141 129 114 86 44 2 347 339 330 325 323 320 318 310 304 308 311 313 316 317 314 310 303 295 287 287 276 273 264 258 278
91 81 194 180 144 117 108 114 111 138 161 159 149 157 160 159 150 151 150 134 110 93 8 341 328 328 328 325 321 320 314 305 300 304 312 313 316 317 314 310 306 300 292 276 272 270 260 248 255
68 78 59 108 102 89 114 96 123 111 145 159 157 161 160 150 142 139 134 134 98 344 338 321 329 332 329 324 322 321 315 317 327 332 327 322 320 319 315 311 306 298 287 281 266 259 259 258 254
126 109 103 81 85 113 119 133 112 166 159 158 157 160 159 157 158 148 151 156 179 288 317 334 337 341 341 335 330 327 325 319 324 325 323 324 323 324 321 325 332 322 301 284 272 263 258 257 257
130 108 52 95 134 98 141 65 117 152 147 154 160 160 165 159 158 161 164 167 207 248 348 348 352 355 358 353 335 327 330 320 317 317 324 328 331 333 332 333 339 342 326 308 292 274 265 255 255
124 110 145 28 161 203 280 144 149 163 167 170 173 170 170 172 176 177 179 196 197 268 359 348 353 357 356 353 339 322 307 308 312 316 324 331 332 331 332 335 337 336 327 318 300 283 276 274 268
5 233 99 113 357 138 112 129 187 175 183 180 170 162 194 201 204 207 199 201 200 21 5 1 348 347 350 357 350 353 334 318 317 322 329 329 336 336 341 336 332 335 329 327 306 278 278 282 280
206 228 107 134 233 84 96 101 171 185 198 189 133 176 198 203 218 216 206 209 216 299 344 354 337 338 346 2 353 355 340 327 320 328 337 341 342 340 345 352 352 350 346 329 321 296 277 268 278
191 121 108 83 207 86 92 113 111 228 246 216 152 215 210 210 219 212 214 221 227 285 320 338 335 341 346 354 344 341 336 342 339 320 325 334 335 341 351 348 346 342 342 336 322 315 299 276 269
104 113 84 48 105 94 112 82 66 79 94 138 178 193 224 218 216 205 209 221 247 288 319 331 328 334 344 352 349 341 334 328 326 321 317 316 326 336 345 349 344 344 342 336 323 301 307 301 289
301 135 171 136 85 71 137 67 75 66 23 350 190 196 217 224 210 209 208 228 255 285 316 319 319 324 343 349 352 347 334 326 321 312 314 319 323 329 341 348 342 342 339 341 329 312 292 301 300
284 115 128 140 126 105 91 73 41 345 331 305 227 222 218 223 220 215 218 234 261 282 301 310 309 325 342 349 350 353 354 349 336 327 329 325 324 329 337 341 342 343 351 359 355 336 299 292 297
268 99 150 151 97 115 12 86 272 91 301 273 233 225 220 238 226 218 222 239 258 266 287 295 302 328 338 340 349 350 350 349 351 340 330 329 329 333 331 336 342 353 357 359 -0 3 341 308 296
111 85 72 46 70 60 295 117 313 243 283 288 240 237 248 267 222 242 246 255 252 268 275 286 306 321 321 330 339 346 345 341 343 344 333 325 328 342 329 332 339 356 358 8 5 354 350 344 308
96 90 23 318 29 173 348 57 238 288 245 246 253 247 248 233 235 250 230 242 248 256 275 289 296 323 311 322 331 333 328 328 331 335 328 325 334 335 332 335 338 346 359 2 7 360 3 1 359
21 121 153 248 165 193 353 24 272 229 329 348 322 242 229 234 256 234 235 244 243 254 282 308 315 319 304 288 320 328 328 326 317 316 321 334 334 330 329 337 343 354 353 355 5 8 21 31 12
325 49 151 108 64 83 266 312 329 19 246 0 3 234 236 236 216 224 236 249 243 263 292 304 303 306 284 291 319 325 327 336 336 321 316 323 318 322 326 337 357 355 356 11 19 19 26 11 14
75 300 173 24 132 132 324 309 247 334 348 206 215 243 234 217 239 242 243 233 256 276 281 293 291 294 271 293 323 332 340 352 23 16 358 351 355 5 340 337 356 17 17 15 15 20 28 27 24
341 8 50 107 88 144 168 259 215 266 297 205 244 268 266 245 244 245 241 246 264 269 276 275 289 294 265 293 315 325 351 15 20 13 27 27 26 17 330 308 342 12 11 21 15 6 18 19 30
115 67 91 110 182 45 106 277 330 237 250 228 232 263 264 256 258 266 261 255 263 263 266 269 288 286 255 282 304 306 330 327 338 352 354 12 16 1 351 273 309 326 357 8 20 19 356 10 2